Location: Unspecified
(0.0000°N, 0.0000°E)
Time: 01:40:35
(UTC+00:00)

SR - Visible Passes

Search period start: 20 February 2017 00:00
Search period end: 02 March 2017 00:00
Orbit: 575 x 883 km, 66.7° (Epoch: 19 February)

Date Brightness Start Highest point End Pass type
(mag) Time Alt. Az. Time Alt. Az. Time Alt. Az.
20 Feb ? 19:10:09 10° S 19:14:25 61° ESE 19:18:10 15° NNE visible
21 Feb ? 20:04:10 10° WSW 20:06:58 16° WNW 20:09:54 10° NNW visible
22 Feb ? 19:13:23 10° SW 19:17:34 46° WNW 19:22:02 10° N visible
24 Feb ? 05:11:55 10° NE 05:13:26 11° ENE 05:14:56 10° E visible
24 Feb ? 19:17:48 10° WSW 19:20:48 18° WNW 19:23:57 10° NNW visible
26 Feb ? 05:12:03 10° NNE 05:16:46 26° ENE 05:21:16 10° SE visible
27 Feb ? 04:26:47 10° ENE 04:27:18 10° ENE 04:27:48 10° ENE visible
27 Feb ? 18:31:27 10° WSW 18:34:38 19° WNW 18:37:59 10° NNW visible
28 Feb ? 05:14:21 10° N 05:20:01 59° ENE 05:25:21 10° SSE visible
01 Mar ? 04:26:03 10° NNE 04:30:37 24° ENE 04:35:00 10° ESE visible
